Location: C.E.K. Mees Observatory
(42.7003°N, 77.4088°W)
Time: 11:51:56
(UTC-04:00)

ISS - Pass Details

Date: 07 October 2017
Orbit: 401 x 408 km, 51.6° (Epoch: 22 October)

Event Time Altitude Azimuth Distance (km) Brightness Sun altitude
Rises 19:04:48 0° 296° (WNW) 2,322 1.3 -5.3°
Reaches altitude 10° 19:07:24 10° 317° (NW) 1,464 -0.4 -5.8°
Maximum altitude 19:09:38 17° 1° (N) 1,120 -1.6 -6.2°
Drops below altitude 10° 19:11:53 10° 44° (NE) 1,467 -1.4 -6.7°
Enters shadow 19:13:02 - 56° (NE) 1,815 -1.0 -6.9°
